User: anonymous   Login
Location: Bothwell
(42.3833°S, 147.0000°E)
Time: 05:52:54
(UTC+10:00)
Language:

CAS-6 - Orbit

View from above orbital plane
View from above orbital plane
View from above satellite
View from above satellite

Ground track
Ground track

The orbit data is extracted from the following two-line orbital elements,

1 44881U 19093C   22267.50677953  .00000512  00000-0  71454-4 0  9991
2 44881  97.8874 345.2728 0014000 220.0463 139.9716 14.81823431149446
Epoch (UTC): 24 September 2022 12:09:45
Eccentricity: 0.0014000
inclination: 97.8874°
perigee height: 614 km
apogee height: 633 km
right ascension of ascending node: 345.2728°
argument of perigee: 220.0463°
revolutions per day: 14.81823431
mean anomaly at epoch: 139.9716°
orbit number at epoch: 14944

The dashed part of the orbit path shows where the satellite is in the earth's shadow,  

DLR